Home   Weather   Johor Bahru   Past weeks

Flag for Malaysia Past Weather in Johor Bahru, Malaysia — Yesterday and Last 2 Weeks

Now
82 °F

Passing clouds.


Feels Like: 89 °F
Forecast: 78 / 91 °F
Wind: 3 mph from Northeast

Location: Singapore / Paya Lebar

Current Time: Sep 27, 2016 at 1:33:51 AM

Latest Report: Sep 26, 2016 at 11:00 PM


Visibility: N/A

Pressure: 29.83 "Hg

Humidity: 79%

Dew Point: 75 °F

Location of Johor BahruLocation

Past Weather in Johor Bahru — Graph

°F

Johor Bahru Temperature Yesterday

Maximum temperature yesterday: 93 °F (at 2:00 PM)
Minimum temperature yesterday: 79 °F (at 7:00 AM)
Average temperature yesterday: 86 °F

High & Low Weather Summary for the Past Weeks

 TemperatureHumidityPressure
High93 °F (Sep 16, 4:00 PM)94% (Sep 12, 9:00 PM)29.89 "Hg (Sep 12, 9:00 PM)
Low75 °F (Sep 14, 7:00 AM)49% (Sep 21, 12:00 PM)29.65 "Hg (Sep 24, 4:00 PM)
Average85 °F73%29.79 "Hg
* Reported Sep 11 11:00 PM — Sep 26 11:00 PM, Johor Bahru, Weather by CustomWeather, © 2016

Note: Actual official high and low records may vary slightly from our data, if they occured in-between our weather recording intervals... More about our weather records

Advertising

Johor Bahru Weather History for the Previous 24 Hours

Scroll right to see more
 ConditionsComfort  
Time TempWeatherWind HumidityBarometerVisibility
11:00 PM
Mon, Sep 26
82 °FPassing clouds.3 mph79%29.83 "HgN/A
10:00 PM82 °FPassing clouds.2 mph79%29.80 "HgN/A
9:00 PM82 °FPassing clouds.5 mph74%29.80 "HgN/A
8:00 PM82 °FPassing clouds.5 mph74%29.77 "HgN/A
7:00 PM84 °FPassing clouds.8 mph74%29.74 "HgN/A
6:00 PM90 °FThundershowers. Partly sunny.14 mph63%29.74 "HgN/A
5:00 PM93 °FScattered showers. Partly sunny.10 mph53%29.68 "HgN/A
4:00 PM93 °FPartly sunny.8 mph56%29.71 "HgN/A
3:00 PM91 °FPartly sunny.10 mph59%29.74 "HgN/A
2:00 PM93 °FBroken clouds.8 mph53%29.74 "HgN/A
1:00 PM91 °FBroken clouds.8 mph56%29.77 "HgN/A
12:00 PM88 °FBroken clouds.5 mph66%29.80 "HgN/A
11:00 AM88 °FPartly sunny.6 mph70%29.83 "HgN/A
10:00 AM88 °FPartly sunny.5 mph66%29.86 "HgN/A
9:00 AM84 °FPartly sunny.1 mph74%29.83 "HgN/A
8:00 AM81 °FPartly sunny.No wind79%29.83 "HgN/A
7:00 AM79 °FPartly sunny.No wind84%29.80 "Hg5 mi
6:00 AM81 °FPassing clouds.No wind79%29.77 "HgN/A
5:00 AM81 °FPassing clouds.No wind79%29.77 "HgN/A
Weather by CustomWeather, © 2016

See weather overviewHow to use our weather pages